BREEZE-M R/B, 39523

Orbit data source: Space-Track

BREEZE-M R/B, 39523 is space debris in HEO originally from a launch on Fri, 14 Feb 2014 UTC launched from the Tyuratam Missile And Space Complex (TTMTR). Debris objects in space refer to the collection of defunct objects orbiting the Earth. Examples of debris include non-operational satellites, rocket bodies, and fragments generated from explosions, collisions, or faulty payload assembly.

Loading next visibility...
Identifier
39523, 2014-007B
Orbit
HEO
Country
Flag of CISCIS
Related business
Manufacturer
Khrunichev
Mission
Spacecraft
Bus & Motor
BRIZ, Unknown motor
Mass
~1,600 kg wet, 1,600 kg dry
Launch date (UTC)
2014-02-14 (12 years ago)
Launch vehicle
Unknown
Launch site
Tyuratam Missile And Space Complex (TTMTR)
Object type
Payload
Rocket body
Debris
Shape & HBR
Cyl, 2.0 m
Radar Cross Section
15.135 m², Large (>1 m²)

Expand to show TLE details & history
Last TLE update: 3 days ago

TLE from 3 days ago
0 BREEZE-M R/B
1 39523U 14007B   26170.40565486 -.00000117  00000-0  00000-0 0  9998
2 39523  14.3309  36.2998 4638407 114.7460 299.6498  1.88487379 84976
Epoch: 2026-06-19T09:44Z
TLE epoch observation values (Epoch: 2026-06-19T09:44:08.579Z)
Latitude
-0.00003°
Longitude
-17.37959°
Altitude
20,562.447 km
Speed
3.898 km/s
True Right ascension
02h 25m 09s
True Declination
0° 00' 00"
Sunlit
Object was in daylight at epoch
Visualization orbit readout
Latitude
Unknown
Longitude
Unknown
Altitude
Unknown
Speed
Unknown
Apparent Right ascension
Unknown
Apparent Declination
Unknown
Sunlit
N/A
Visualization observer readout
Local Sidereal Time
23:09:03
Azimuth
Unknown
Elevation
Unknown
Doppler factor
Unknown
Orbital elements
Apogee altitude
34,148.479 km
Perigee altitude
8,465.501 km
Semi-major axis
27,685.127 km
Eccentricity
0.46384
Inclination
14.3309°
RAAN
36.2998°
Arg. of periapsis
114.746°
True anomaly
245.15789°
Mean anomaly
299.6498°
Eccentric anomaly
273.1129°
Mean motion
0.47117 °/min
Orbital period
764.06 mins
BSTAR
0
Loading maneuver chart data...
Computing Atmospheric mass density...
Loading historical data...
Loading historical data...
Loading historical data...
Loading historical data...
Loading historical data...
Loading historical data...
Loading historical data...
Other satellites on launch #7 in the year 2014 (2014-02-14 UTC)

Documentation

Showing up to 5 results
|